STARLINK-2032 (47649 NORAD) Tracking and Keplerian Element Data

This shows tracking and keplerian element data for the satellite.

Feedback or suggestion? Click here.




ElementValue
Catalog47649
NameSTARLINK-2032
Epoch Orbit177
Epoch Day105.91667824
Epoch Year2021
RAAN169.0813
Inclination53.0459
Eccentricity0.0002243
Argument of Perigee32.8306
Mean Anonmoly14.6265
Mean Motion15.73225854
Decay Rate0.00014472
L11 47649U 21012AF 21105.91667824 .00014472 00000-0 10722-3 0 9991
L22 47649 53.0459 169.0813 0002243 32.8306 14.6265 15.73225854 1770

Live tracking and technical data element details for STARLINK-2032 (NORAD 47649). STARLINK-2032 can be tracked NOW for your location showing map with azimuth and elevation plus other details from your city location.

Track the satellite on the map from your city or location and see movement details for azimuth, elevation, latitude, longitude, range, height, and movement on the map or in text.







IsCatalogInMostPopularTable: catalog: 47649, numindb: 17
Update: records affected: 1



GetName: 47649 STARLINK-2032

Hit Count: updated at: Fri, 16 Apr 2021 11:12:52 GMT